Location: Unspecified
(0.0000°N, 0.0000°E)
Time: 17:55:26
(UTC+00:00)

ISS - Visible Passes

Search period start: 12 June 2025 00:00
Search period end: 22 June 2025 00:00
Orbit: 415 x 417 km, 51.6° (Epoch: 12 June)

Date Brightness Start Highest point End Pass type
(mag) Time Alt. Az. Time Alt. Az. Time Alt. Az.
12 Jun -1.3 04:04:37 19° ESE 04:04:37 19° ESE 04:06:31 10° ENE visible
13 Jun -2.6 04:51:34 26° WNW 04:52:00 27° NW 04:54:54 10° N visible
14 Jun -1.5 04:05:31 22° NNE 04:05:31 22° NNE 04:06:51 10° NNE visible
